Location: Erdweis
(48.5167°N, 15.3500°E)
Time: 00:34:21
(UTC+00:00)

NOSS 2-2 (C) - Pass Details

Date: 24 January 2021
Orbit: 463 x 1745 km, 63.3° (Epoch: 03 March)

Event Time Altitude Azimuth Distance (km) Brightness Sun altitude
Rises 18:33:53 0° 320° (NW) 2,981 7.6 -27.8°
Reaches altitude 10° 18:36:00 10° 328° (NNW) 2,205 6.8 -28.1°
Enters shadow 18:39:10 35° 358° (N) 1,303 5.1 -28.7°
